Meteo Giornale » Osservazioni meteo Francia » Nizza

ore: 03:00 - Osservazioni Meteo Nizza
Lat. 43° 39' N Lon. 7° 12' E Alt. 4 metri s.l.m.

molto_nuvoloso Europe/Paris

17 °C

Molto Nuvoloso

Temp. 24 Ore

15 °C

22 °C

Nord/NOvest

14.8 Km/h

Dew point 14 °C

Umidità 82 %

Visibilità  10 Km

Il sole sorge alle ore 07:29

Il sole tramonta alle ore 19:10

Data e Ora Cielo e Fenomeni T °C DP °C Um. % Pres. hPa Vis. km Vento km/h
Oggi h: 03:00 molto_nuvoloso Molto Nuvoloso 17 14 82 1017 10 N/NO 14.8
Oggi h: 02:30 molto_nuvoloso Molto Nuvoloso 17 14 82 1017 10 N/NO 13
Oggi h: 02:00 molto_nuvoloso Molto Nuvoloso 18 14 77 1017 10 N/NO 16.7
Oggi h: 01:30 molto_nuvoloso Molto Nuvoloso 18 15 82 1017 10 NO 14.8
Oggi h: 01:00 molto_nuvoloso Molto Nuvoloso 17 15 88 1017 10 N/NO 11.1
Oggi h: 00:30 molto_nuvoloso Molto Nuvoloso 18 15 82 1017 10 NO 13
Oggi h: 00:00 molto_nuvoloso Molto Nuvoloso 18 15 82 1017 10 NO 13
Ieri h: 23:30 molto_nuvoloso Molto Nuvoloso 18 15 82 1018 10 NO 13
Ieri h: 23:00 molto_nuvoloso Molto Nuvoloso 18 15 82 1018 10 NO 13
Ieri h: 22:30 molto_nuvoloso Molto Nuvoloso 19 16 82 1018 10 NO 9.3
Ieri h: 22:00 molto_nuvoloso Molto Nuvoloso 20 16 77 1018 10 N 5.5
Ieri h: 21:30 molto_nuvoloso Molto Nuvoloso 20 16 77 1018 10 N/NO 7.4
Ieri h: 21:00 molto_nuvoloso Molto Nuvoloso 20 16 77 1018 10 NO 9.3
Ieri h: 20:30 sereno Sereno 20 16 77 1017 10 N 9.3
Ieri h: 20:00 sereno Sereno 21 17 77 1017 10 E 20.3
Ieri h: 19:30 sereno Sereno 21 17 77 1017 10 E 24
Ieri h: 19:00 sereno Sereno 21 17 77 1017 10 E 27.8
Ieri h: 18:30 sereno Sereno 21 17 77 1017 10 E 29.6
Ieri h: 18:00 sereno Sereno 21 16 73 1017 10 E 29.6
Ieri h: 17:30 sereno Sereno 22 16 68 1017 10 E 31.5
Ieri h: 17:00 sereno Sereno 22 16 68 1018 10 E 31.5
Ieri h: 16:30 sereno Sereno 22 16 68 1018 10 E 27.8
Ieri h: 16:00 sereno Sereno 22 16 68 1018 10 E 27.8
Ieri h: 15:30 sereno Sereno 22 16 68 1018 10 E 25.9
Ieri h: 15:00 sereno Sereno 22 16 68 1019 10 E 22.2
Ieri h: 14:30 nuvoloso Nuvoloso 22 15 64 1019 10 E 18.5
Ieri h: 14:00 molto_nuvoloso Molto Nuvoloso 22 16 68 1020 10 E/SE 16.7
Ieri h: 13:30 molto_nuvoloso Molto Nuvoloso 22 17 73 1020 10 E 14.8
Ieri h: 13:00 molto_nuvoloso Molto Nuvoloso 22 16 68 1021 10 E 11.1
Ieri h: 12:30 molto_nuvoloso Molto Nuvoloso 21 16 73 1021 10 E 7.4
Ieri h: 12:00 molto_nuvoloso Molto Nuvoloso 21 16 73 1021 10 N 5.5
Ieri h: 11:30 molto_nuvoloso Molto Nuvoloso 21 15 68 1022 10 N 5.5
Ieri h: 11:00 molto_nuvoloso Molto Nuvoloso 21 15 68 1022 10 N 3.7
Ieri h: 10:30 molto_nuvoloso Molto Nuvoloso 20 13 64 1022 10 N 3.7
Ieri h: 10:00 molto_nuvoloso Molto Nuvoloso 19 13 68 1021 10 N 5.5
Ieri h: 09:30 molto_nuvoloso Molto Nuvoloso 18 12 67 1021 10 NO 14.8
Ieri h: 09:00 sereno Sereno 17 12 72 1021 10 N/NO 9.3
Ieri h: 08:30 sereno Sereno 16 12 77 1021 10 N/NO 11.1
Ieri h: 08:00 sereno Sereno 16 12 77 1020 10 N/NO 11.1
Ieri h: 07:30 sereno Sereno 15 12 82 1020 10 NO 11.1
Ieri h: 07:00 sereno Sereno 16 12 77 1020 10 N/NO 7.4
Ieri h: 06:30 sereno Sereno 16 11 72 1020 10 N/NO 13
Ieri h: 06:00 sereno Sereno 16 12 77 1020 10 NO 7.4
Ieri h: 05:30 sereno Sereno 16 12 77 1019 10 N/NO 9.3
Ieri h: 05:00 sereno Sereno 16 11 72 1019 10 NO 16.7
Ieri h: 04:30 sereno Sereno 16 11 72 1019 10 NO 14.8
Ieri h: 04:00 sereno Sereno 15 11 76 1019 10 NO 13